www.pogodaiklimat.ru

Погода и климат >> Архив погоды >> Норвегия >> Маяк Skrova


ПОГОДА на Маяке Skrova

  • Прогноз погоды на Маяке Skrova
  • Монитор погоды на Маяке Skrova

АРХИВ ПОГОДЫ на Маяке Skrova

Время (UTC), дата Ветер
(напр.,м/с)
 
Видим.   Явления Облачность Т
(С)
Тd
(С)
f
(%)
Тe
(С)
Тes
(С)
Комфортность P
(гПа)
Po
(гПа)
Тmin
(С)
Tmax
(С)
R
(мм)
R24
(мм)
S
(см)
07 11.08 СВ 5
{11}
н/о н/о +17.1 +9.8 62 +16 +16 1002.8 1001.5
08 11.08 СВ 7
{11}
н/о н/о +16.9 +9.8 63 +16 +16 1002.6 1001.3
09 11.08 СВ 7 н/о н/о +17.6 +9.8 60 +17 +17 1002.4 1001.1
10 11.08 СВ 5
{12}
н/о н/о +17.6 +9.3 58 +17 +17 1002.5 1001.2
11 11.08 СВ 5
{9}
н/о н/о +17.9 +9.5 58 +18 +18 1002.4 1001.1
12 11.08 В 4
{12}
>70 км 9/0 2000 м
[Ac trans]
+19.1 +9.3 53 +20 +22 1002.3 1001.0
13 11.08 В 3
{5}
н/о н/о +19.3 +9.5 53 +20 +20 1002.3 1001.0
14 11.08 В 3
{5}
н/о н/о +19.5 +9.7 53 +21 +21 комфорт 1002.3 1001.0
15 11.08 В 4
{5}
н/о н/о +18.1 +10.5 61 +18 +18 1002.4 1001.1
16 11.08 С 4
{5}
н/о н/о +17.8 +10.9 64 +18 +18 1002.2 1000.9
17 11.08 С 4
{6}
н/о н/о +17.8 +10.7 63 +18 +18 1002.2 1000.9
18 11.08 СВ 4
{6}
>70 км {ливн. осадки} 8/0 2000 м
[Ac trans]
+18.4 +10.5 60 +19 +19 1002.2 1000.9 +13.8 +21.8
19 11.08 СВ 6
{10}
н/о н/о +18.7 +10.0 57 +19 +19 1002.2 1000.9
20 11.08 СВ 6
{8}
н/о н/о +18.5 +10.4 59 +18 +18 1002.2 1000.9
21 11.08 СВ 6
{9}
н/о н/о +18.5 +10.4 59 +18 +18 1002.2 1000.9
22 11.08 СВ 6
{10}
н/о н/о +18.4 +10.5 60 +18 +18 1002.1 1000.8
23 11.08 СВ 7
{9}
н/о н/о +18.0 +10.4 61 +17 +17 1002.1 1000.8
00 12.08 СВ 7
{10}
н/о н/о +18.1 +10.5 61 +17 +17 1001.9 1000.6
01 12.08 СВ 6
{10}
н/о н/о +17.9 +10.5 62 +17 +17 1001.9 1000.6
02 12.08 СВ 7
{11}
н/о н/о +18.1 +10.5 61 +17 +17 1001.7 1000.4
03 12.08 СВ 8
{11}
н/о н/о +18.2 +10.3 60 +18 +18 1001.5 1000.2
04 12.08 СВ 7
{11}
н/о н/о +18.1 +10.5 61 +17 +17 1001.5 1000.2
05 12.08 СВ 7
{11}
н/о н/о +18.0 +10.6 62 +17 +17 1001.4 1000.1
06 12.08 СВ 9
{13}
>70 км 10/10 1000 м
[Sc]
+18.2 +10.6 61 +17 +17 1001.2 999.9 +17.1 +21.9
07 12.08 СВ 9
{12}
н/о н/о +18.6 +10.7 60 +18 +18 1001.1 999.8
08 12.08 СВ 8
{12}
н/о н/о +19.0 +10.8 59 +19 +19 1001.3 1000.0
09 12.08 СВ 7
{11}
н/о н/о +19.5 +10.8 57 +20 +20 1001.3 1000.0
10 12.08 СВ 7
{10}
н/о н/о +20.4 +10.8 54 +22 +22 комфорт 1001.3 1000.0
11 12.08 СВ 6
{9}
н/о н/о +21.1 +10.9 52 +23 +23 комфорт 1001.3 1000.0
12 12.08 СВ 5
{12}
>70 км 4/0 2000 м
[Ac trans]
+21.7 +10.8 50 +24 +27 комфорт 1001.2 999.9
13 12.08 СВ 5
{7}
н/о н/о +22.2 +10.7 48 +24 +24 комфорт 1001.0 999.7
14 12.08 В 4
{6}
н/о н/о +22.7 +10.5 46 +25 +25 комфорт 1000.8 999.5
15 12.08 В 4
{6}
н/о н/о +22.9 +10.4 45 +25 +25 комфорт 1000.8 999.5
16 12.08 СВ 5
{6}
н/о н/о +22.4 +10.6 47 +24 +24 комфорт 1000.6 999.3
17 12.08 СВ 5
{8}
н/о н/о +22.0 +10.2 47 +24 +24 комфорт 1000.7 999.4
18 12.08 СВ 5
{8}
>70 км 4/1 1000 м
[Cu med, cong Ac trans]
+21.9 +10.7 49 +24 +24 комфорт 1000.7 999.4 +17.4 +23.7
19 12.08 СВ 5
{7}
н/о н/о +21.4 +10.9 51 +23 +23 комфорт 1000.8 999.5
20 12.08 СВ 6
{10}
н/о н/о +20.8 +10.9 53 +23 +23 комфорт 1000.8 999.5
21 12.08 СВ 8
{10}
н/о н/о +20.1 +11.1 56 +21 +21 комфорт 1001.2 999.9
22 12.08 СВ 7
{11}
н/о н/о +19.9 +11.1 57 +21 +21 комфорт 1001.5 1000.2
23 12.08 СВ 8
{10}
н/о н/о +19.6 +10.9 57 +20 +20 1001.4 1000.1
00 13.08 СВ 6
{11}
н/о н/о +19.2 +11.5 61 +20 +20 1001.5 1000.2
01 13.08 СВ 6
{11}
н/о н/о +18.8 +11.1 61 +19 +19 1001.6 1000.3
02 13.08 СВ 7
{12}
н/о н/о +18.6 +11.2 62 +18 +18 1001.4 1000.1
03 13.08 В 8
{12}
н/о н/о +18.1 +11.2 64 +17 +17 1001.3 1000.0
04 13.08 СВ 8
{13}
н/о н/о +18.1 +11.0 63 +17 +17 1001.3 1000.0
05 13.08 СВ 9
{13}
н/о н/о +18.2 +10.8 62 +17 +17 1001.3 1000.0
06 13.08 СВ 9
{14}
>70 км 3/0 2000 м
[Ac trans]
+17.8 +10.9 64 +17 +17 1001.4 1000.1 +17.3 +22.6
07 13.08 СВ 8
{13}
н/о н/о +18.2 +10.8 62 +18 +18 1001.4 1000.1
08 13.08 СВ 8
{12}
н/о н/о +18.4 +10.8 61 +18 +18 1001.5 1000.2
09 13.08 СВ 7
{12}
н/о н/о +18.7 +10.5 59 +19 +19 1001.3 1000.0
10 13.08 СВ 6
{11}
н/о н/о +19.3 +10.3 56 +20 +20 1001.2 999.9
11 13.08 СВ 5
{10}
н/о н/о +20.1 +10.5 54 +21 +21 комфорт 1001.2 999.9
12 13.08 СВ 6
{13}
>70 км ясно +20.1 +10.2 53 +21 +24 комфорт 1001.0 999.7
13 13.08 СВ 5
{8}
н/о н/о +20.8 +10.3 51 +23 +23 комфорт 1000.8 999.5
14 13.08 СВ 5
{8}
н/о н/о +21.1 +10.6 51 +23 +23 комфорт 1000.5 999.2
15 13.08 СВ 5
{8}
н/о н/о +21.5 +11.0 51 +23 +23 комфорт 1000.1 998.8
16 13.08 СВ 4
{7}
н/о н/о +21.5 +11.0 51 +23 +23 комфорт 1000.0 998.7
17 13.08 СВ 6
{8}
н/о н/о +21.1 +11.2 53 +23 +23 комфорт 999.9 998.6
18 13.08 СВ 8
{10}
>70 км 4/0 2000 м
[Ac trans]
+20.5 +11.2 55 +22 +22 комфорт 999.8 998.5 +16.7 +22.3
19 13.08 С 6
{11}
н/о н/о +17.9 +12.4 70 +17 +17 999.8 998.5
20 13.08 С 5
{8}
н/о н/о +17.4 +12.3 72 +17 +17 999.8 998.5
21 13.08 СВ 6
{9}
н/о н/о +18.8 +11.9 64 +19 +19 999.7 998.4
22 13.08 СВ 8
{12}
н/о н/о +19.7 +11.7 60 +21 +21 комфорт 999.8 998.5
23 13.08 СВ 8
{12}
н/о н/о +18.9 +11.5 62 +19 +19 999.8 998.5
00 14.08 В 6
{12}
н/о н/о +16.1 +13.0 82 +15 +15 1000.2 998.9
01 14.08 Ю 4
{9}
н/о н/о +15.7 +14.2 91 +15 +15 1000.6 999.3
02 14.08 Ю 4
{7}
н/о н/о +15.3 +14.3 94 +14 +14 1001.0 999.7
03 14.08 Ю 2
{5}
н/о н/о +15.2 +14.2 94 +15 +15 1001.1 999.8
04 14.08 ЮЗ 6
{7}
н/о н/о +14.7 +14.1 96 +13 +13 1001.3 1000.0
05 14.08 ЮЗ 6
{7}
н/о н/о +14.5 +13.9 96 +13 +13 1001.5 1000.2
06 14.08 ЮЗ 7
{9}
30 км {морось} 10/10 200 м
[St]
+14.4 +13.1 92 +12 +12 1001.5 1000.2 +14.2 +21.1
07 14.08 ЮЗ 7
{9}
н/о н/о +14.3 +12.7 90 +12 +12 1001.8 1000.5
08 14.08 ЮЗ 7
{9}
н/о н/о +13.9 +12.5 91 +11 +11 1002.0 1000.7
09 14.08 ЮЗ 7
{8}
н/о н/о +14.1 +12.7 91 +12 +12 1002.2 1000.9
10 14.08 ЮЗ 7
{8}
н/о н/о +13.8 +12.0 89 +11 +11 1002.5 1001.2
11 14.08 ЮЗ 7
{9}
н/о н/о +14.0 +11.9 87 +12 +12 1002.7 1001.4
12 14.08 ЮЗ 7
{9}
>70 км {ливн. осадки} 10/10 600 м
[Cu Sc]
+14.0 +12.0 88 +12 +12 1003.1 1001.8
13 14.08 ЮЗ 6
{9}
н/о н/о +14.1 +11.4 84 +12 +12 1003.3 1002.0
14 14.08 ЮЗ 7
{8}
н/о н/о +14.0 +11.7 86 +12 +12 1003.4 1002.1
15 14.08 ЮЗ 6
{8}
н/о н/о +13.9 +12.1 89 +12 +12 1003.5 1002.2
16 14.08 ЮЗ 6
{8}
н/о н/о +13.9 +12.5 91 +12 +12 1003.7 1002.4
17 14.08 ЮЗ 8
{9}
н/о н/о +13.3 +11.9 91 +10 +10 1003.8 1002.5
18 14.08 ЮЗ 8
{9}
30 км слаб. морось 10/10 300 м
[St]
+13.1 +11.7 91 +10 +10 1003.9 1002.6 +12.4 +15.2
19 14.08 ЮЗ 8
{10}
н/о н/о +13.0 +11.6 91 +10 +10 1004.1 1002.8
20 14.08 ЮЗ 7
{10}
н/о н/о +13.2 +11.8 91 +11 +11 1004.2 1002.9
21 14.08 ЮЗ 8
{10}
н/о н/о +13.3 +11.9 91 +10 +10 1004.4 1003.1
22 14.08 ЮЗ 7
{9}
н/о н/о +13.1 +11.8 92 +10 +10 1004.4 1003.1
23 14.08 ЮЗ 7
{9}
н/о н/о +13.1 +12.0 93 +10 +10 1004.5 1003.2
00 15.08 ЮЗ 7
{10}
н/о н/о +12.7 +11.4 92 +10 +10 1004.6 1003.3
01 15.08 ЮЗ 6
{8}
н/о н/о +12.8 +11.4 91 +10 +10 1004.7 1003.4
02 15.08 ЮЗ 6
{8}
н/о н/о +13.4 +12.0 91 +11 +11 1004.6 1003.3
03 15.08 ЮЗ 5
{7}
н/о н/о +12.9 +12.1 95 +11 +11 1004.7 1003.4
04 15.08 ЮЗ 4
{6}
н/о н/о +12.5 +11.7 95 +10 +10 1004.8 1003.5
05 15.08 ЮЗ 4
{6}
н/о н/о +12.2 +11.4 95 +10 +10 1005.0 1003.7
06 15.08 ЮЗ 4
{8}
>70 км {ливн. осадки} 10/10 300 м
[Cu Sc]
+12.8 +11.0 89 +11 +11 1005.1 1003.8 +11.5 +14.3
07 15.08 ЮЗ 6
{7}
н/о н/о +12.5 +11.4 93 +10 +10 1005.4 1004.1
08 15.08 ЮЗ 6
{7}
н/о н/о +12.9 +10.6 86 +10 +10 1005.4 1004.1
09 15.08 ЮЗ 5
{7}
н/о н/о +13.1 +10.6 85 +11 +11 1005.7 1004.4
10 15.08 ЮЗ 6
{7}
н/о н/о +12.7 +11.3 91 +10 +10 1005.9 1004.6
11 15.08 ЮЗ 5
{7}
н/о н/о +13.6 +10.0 79 +12 +12 1006.1 1004.8
12 15.08 З 5
{8}
>70 км {ливн. осадки} 10/10 600 м
[Cu Sc]
+13.8 +9.3 74 +12 +12 1006.4 1005.1
13 15.08 ЮЗ 6
{7}
н/о н/о +13.9 +10.3 79 +12 +12 1006.6 1005.3
14 15.08 ЮЗ 5
{7}
н/о н/о +13.8 +9.5 75 +12 +12 1006.8 1005.5
15 15.08 С 3
{6}
н/о н/о +13.2 +9.8 80 +12 +12 1007.0 1005.7
16 15.08 СЗ 2
{4}
н/о н/о +13.7 +9.8 77 +13 +13 1007.2 1005.9
17 15.08 ЮЗ 3
{4}
н/о н/о +14.0 +9.7 75 +13 +13 1007.3 1006.0
18 15.08 СЗ 4
{7}
>70 км 9/9 600 м
[Cu Sc]
+13.4 +9.7 78 +12 +12 1007.3 1006.0 +11.9 +14.6
19 15.08 С 5
{5}
н/о н/о +12.3 +8.8 79 +10 +10 1007.3 1006.0
20 15.08 С 4
{5}
н/о н/о +12.7 +9.2 79 +11 +11 1007.4 1006.1
21 15.08 СВ 3
{5}
н/о н/о +12.5 +9.0 79 +11 +11 1007.4 1006.1
22 15.08 С 2
{3}
н/о н/о +12.7 +9.4 80 +12 +12 1007.4 1006.1
23 15.08 СВ 1
{3}
н/о н/о +12.4 +9.2 81 +12 +12 1007.3 1006.0
00 16.08 С 1
{5}
н/о н/о +12.6 +8.9 78 +13 +13 1007.1 1005.8
01 16.08 СВ 2
{2}
н/о н/о +12.2 +9.0 81 +11 +11 1006.9 1005.6
02 16.08 С 3
{3}
н/о н/о +12.2 +9.9 86 +11 +11 1006.8 1005.5
03 16.08 СВ 3
{3}
н/о н/о +11.0 +8.4 84 +9 +9 1006.4 1005.1
04 16.08 СВ 2
{3}
н/о н/о +12.4 +9.6 83 +11 +11 1006.3 1005.0
05 16.08 СВ 3
{4}
н/о н/о +12.1 +9.3 83 +10 +10 1006.1 1004.8
06 16.08 СВ 3
{5}
>70 км ясно +13.4 +9.8 79 +12 +14 1005.8 1004.5 +10.5 +13.5
07 16.08 В 4
{6}
н/о н/о +12.7 +9.2 79 +11 +11 1005.3 1004.0
08 16.08 В 5
{8}
н/о н/о +14.1 +10.3 78 +12 +12 1004.9 1003.6
09 16.08 В 6
{9}
н/о н/о +14.2 +10.6 79 +12 +12 1004.5 1003.2
10 16.08 В 5
{8}
н/о н/о +14.5 +9.5 72 +13 +13 1004.3 1003.0
11 16.08 В 6
{9}
н/о н/о +13.8 +8.6 71 +12 +12 1004.2 1002.9
12 16.08 В 4
{9}
>70 км 5/1 1000 м
[Cu med, cong Cs]
+15.7 +9.8 68 +15 +19 1004.1 1002.8
13 16.08 С 3
{6}
н/о н/о +15.2 +9.1 67 +15 +15 1004.2 1002.9
14 16.08 Ю 1
{3}
н/о н/о +15.8 +10.4 70 +17 +17 1004.3 1003.0
15 16.08 ЮВ 2
{3}
н/о н/о +14.6 +10.2 75 +14 +14 1004.1 1002.8
16 16.08 Ю 1
{4}
н/о н/о +14.7 +10.7 77 +15 +15 1004.3 1003.0
17 16.08 ЮВ 1
{3}
н/о н/о +14.7 +11.3 80 +15 +15 1004.2 1002.9
18 16.08 ЮЗ 9
{12}
>70 км слаб. ливневой дождь 10/10 600 м
[Cu Sc]
+12.7 +10.9 89 +9 +9 1005.1 1003.8 +12.7 +17.8
19 16.08 Ю 5
{9}
н/о н/о +13.1 +10.6 85 +11 +11 1005.0 1003.7
20 16.08 Ю 6
{9}
н/о н/о +13.7 +10.1 79 +12 +12 1004.9 1003.6
21 16.08 Ю 5
{6}
н/о н/о +14.1 +9.7 75 +12 +12 1004.6 1003.3
22 16.08 Ю 6
{8}
н/о н/о +14.1 +10.5 79 +12 +12 1004.6 1003.3
23 16.08 Ю 4
{9}
н/о н/о +13.9 +10.3 79 +12 +12 1004.7 1003.4
00 17.08 Ю 6
{9}
н/о н/о +14.0 +9.7 75 +12 +12 1004.7 1003.4
01 17.08 ЮВ 3
{8}
н/о н/о +13.6 +9.3 75 +12 +12 1004.6 1003.3
02 17.08 ЮВ 3
{6}
н/о н/о +13.9 +9.2 73 +13 +13 1004.6 1003.3
03 17.08 Ю 6
{8}
н/о н/о +14.2 +10.2 77 +12 +12 1004.5 1003.2
04 17.08 ЮВ 2
{7}
н/о н/о +13.6 +9.3 75 +13 +13 1004.3 1003.0
05 17.08 Ю 2
{4}
н/о н/о +13.7 +9.2 74 +13 +13 1004.1 1002.8
06 17.08 В 3
{8}
>70 км {ливн. осадки} 5/0
[Cs]
+14.3 +9.7 74 +13 +15 1004.0 1002.7 +12.5 +15.7
07 17.08 В 5
{7}
н/о н/о +14.7 +10.5 76 +13 +13 1003.7 1002.4
08 17.08 В 5
{8}
н/о н/о +14.3 +10.1 76 +13 +13 1003.5 1002.2
09 17.08 СВ 7
{10}
н/о н/о +14.0 +8.6 70 +12 +12 1002.9 1001.6
10 17.08 СВ 5
{9}
н/о н/о +14.8 +9.2 69 +13 +13 1002.8 1001.5
11 17.08 СВ 5
{8}
н/о н/о +16.1 +8.6 61 +15 +15 1002.4 1001.1
12 17.08 СВ 7
{10}
>70 км 8/0 2000 м
[Ac trans]
+16.2 +6.9 54 +15 +16 1001.7 1000.4
13 17.08 СВ 7
{10}
н/о н/о +16.6 +6.7 52 +15 +15 1001.2 999.9
14 17.08 СВ 9
{12}
н/о н/о +17.1 +6.9 51 +16 +16 1000.4 999.1
15 17.08 СВ 9
{12}
н/о н/о +17.8 +8.1 53 +17 +17 999.7 998.4
16 17.08 СВ 8
{11}
н/о н/о +17.9 +8.2 53 +17 +17 999.2 997.9
17 17.08 СВ 8
{12}
н/о н/о +18.1 +8.9 55 +17 +17 998.6 997.3
18 17.08 СВ 9
{13}
>70 км 10/0 2000 м
[Ac As]
+17.9 +10.3 61 +17 +17 998.2 996.9 +13.0 +19.1
19 17.08 СВ 8
{12}
н/о н/о +17.8 +10.4 62 +17 +17 998.0 996.7
20 17.08 СВ 5
{11}
н/о н/о +18.0 +10.9 63 +18 +18 997.4 996.1
21 17.08 СВ 6
{9}
н/о н/о +17.7 +11.1 65

 

Местоположение метеостанции Маяк Skrova (Норвегия): широта 68.15 долгота 14.65 высота над уровнем моря 11 м.

В архиве по умолчанию представлена погода на Маяке Skrova за последнюю неделю. Архивные данные за месяц целиком и за предыдущие месяцы, начиная с января 2011 года, Вы можете получить, выбрав интересующий диапазон дат из раскрывающегося списка и нажав кнопку "Ввод!".


*Определитесь, кто Вы:
робот инопланетянин человек

Внимание! Время в таблицах - всемирное. Для получения местного времени необходимо прибавить поправку, которая равна 1 ч.

Смотрите также архив погоды в соседних городах и на ближайших метеорологических станциях:

Погода в Сволваер аэропорту (Норвегия) (11 км)
Погода в Лекнесе (Норвегия) (43 км)
Погода в Стокмаркнес аэропорту (Норвегия) (50 км)
Погода в Бё (Норвегия) (52 км)
Погода на Маяке Rotvaer (Норвегия) (59 км)
Погода в Драге (Норвегия) (60 км)
Погода в Сортланне (Норвегия) (69 км)
Погода в Хеллигвере (Норвегия) (89 км)
Погода в Аэропорту Харстад/Нарвик (Норвегия) (92 км)
Погода в Аэропорту Vaeroy Heliport (Норвегия) (98 км)

Пояснения к столбцам:

Ветер - указаны скорость ветра в м/с - средняя за 10 мин, порывы в срок и между сроками (в фигурных скобках) и направление, откуда дует ветер: С - северный, СВ - северо-восточный, В - восточный, ЮВ - юго-восточный, Ю - южный, ЮЗ - юго-западный, З - западный, СЗ - северо-западный.
Видимость - горизонтальная дальность видимости в метрах или километрах. При видимости от 1 до 10 км при отсутствии осадков обычно наблюдается дымка, при ухудшении видимости до 1 км и менее - туман. В сухую погоду видимость может ухудшаться дымом, пылью или мглою.
Явления - указаны атмосферные явления, наблюдавшиеся в срок или в последний час перед сроком; фигурными скобками обозначены явления, наблюдавшиеся между сроками (за 1-3 часа до срока); квадратными скобками обозначены град или гололедные отложения с указанием их диаметра в мм.
Облачность - указаны через наклонную черту общая и нижняя облачность в баллах и высота нижней границы облаков в метрах; квадратными скобками обозначены формы облаков: Ci - перистые, Cs - перисто-слоистые, Cc - перисто-кучевые, Ac - высококучевые, As - высокослоистые, Sc - слоисто-кучевые, Ns - слоисто-дождевые, Cu - кучевые, Cb - кучево-дождевые. Подробнее классификацию облаков см. в Атласе облаков (PDF).
T - Температура воздуха - температура, измеренная на высоте 2 м над землей.
Td - Температура точки росы - температура, при понижении до которой содержащийся в воздухе водяной пар достигнет насыщения.
f - Относительная влажность воздуха - влажноcть воздуха, измеренная на высоте 2 м над землей.
Te - Эффективная температура - температура, которую ощущает одетый по сезону человек в тени. Характеристика душности погоды. При расчете учитывается влияние влажности воздуха и скорости ветра на теплоощущения человека.
Tes - Эффективная температура на солнце - температура, которую ощущает человек, с поправкой на солнечный нагрев. Характеристика знойности погоды. Зависит от высоты солнца над горизонтом, облачности и скорости ветра. Ночью, в пасмурную погоду, а также при ветре 12 м/с и более поправка равна нулю.
P - Атмосферное давление - приведенное к уровню моря атмосферное давление.
Po - Атмосферное давление - измеренное на уровне метеостанции атмосферное давление.
Tmin - Минимальная температура - минимум температуры воздуха на высоте 2 м над землей.
Tmax - Максимальная температура - максимум температуры воздуха на высоте 2 м над землей.
R - Количество осадков - Количество выпавших осадков за период времени, мм. При наведении курсора мыши на число - период времени, за который выпало указанное количество осадков.
R24 - Количество осадков - Количество выпавших осадков за 24 часа, мм.
S - Снежный покров - Высота снежного покрова, см. При наведении курсора мыши на число - состояние снежного покрова и степень покрытия местности в баллах.